Grayling, MI

12:56 AM EST on December 13, 2017 (GMT -0500)
Grayling

Weather History for KGOV - November, 2013

Change the Weather History Date:

Saturday, November 9, 2013

  Actual Average (KHTL) Record (KHTL)
Temperature  
Mean Temperature 39 °F -  
Max Temperature 45 °F 43 °F 69 °F (1999)
Min Temperature 33 °F 30 °F 0 °F (1925)
Degree Days  
Heating Degree Days 26    
Moisture  
Dew Point 36 °F    
Average Humidity 90    
Maximum Humidity 99    
Minimum Humidity 76    
Precipitation  
Precipitation 0.00 in - - ()
Sea Level Pressure  
Sea Level Pressure 29.79 in    
Wind  
Wind Speed 7 mph (SSW)    
Max Wind Speed 17 mph    
Max Gust Speed 25 mph    
Visibility 8 miles    
Events Rain , Snow    
Averages and records for this station are not official NWS values.
T = Trace of Precipitation, MM = Missing Value Source: NWS Daily Summary

Daily Weather History Graph

Daily Weather History Graph

Search for Another Location

Airport or City:

Trip Planner

Search our weather history database for the weather conditions in past years. The results will help you decide how hot, cold, wet, or windy it might be!

Date:

Astronomy

Nov. 09, 2013 Rise Set
Actual Time 7:27 AM EST 5:17 PM EST
Civil Twilight 6:56 AM EST 5:48 PM EST
Nautical Twilight 6:21 AM EST 6:23 PM EST
Astronomical Twilight 5:47 AM EST 6:57 PM EST
Moon 1:01 PM EST (11/9) 11:49 PM EST (11/9)
Length of Visible Light 10h 51m
Length of Day
9h 49m
Waxing Crescent, 44% of the Moon is Illuminated
Nov 9
Waxing Crescent
Nov 10
First Quarter
Nov 17
Full
Nov 25
Last Quarter
Dec 2
New

Hourly Weather History & Observations

Time (EST) Temp. Windchill Dew Point Humidity Pressure Visibility Wind Dir Wind Speed Gust Speed Precip Events Conditions
12:15 AM 33.3 °F - 31.8 °F 94% 30.06 in 10.0 mi Calm Calm - N/A   Overcast
12:35 AM 33.3 °F - 31.5 °F 93% 30.06 in 10.0 mi Calm Calm - N/A   Overcast
12:54 AM 33.3 °F - 31.5 °F 93% 30.06 in 10.0 mi Calm Calm - N/A   Overcast
1:15 AM 33.3 °F 27.9 °F 30.9 °F 91% 30.04 in 10.0 mi ESE 5.8 mph - N/A   Overcast
1:34 AM 33.3 °F 27.9 °F 30.9 °F 91% 30.03 in 10.0 mi East 5.8 mph - N/A   Overcast
1:55 AM 33.3 °F 28.9 °F 29.7 °F 87% 30.01 in 10.0 mi East 4.6 mph - N/A   Overcast
2:15 AM 33.3 °F 26.4 °F 29.3 °F 85% 29.99 in 10.0 mi East 8.1 mph - N/A   Overcast
2:35 AM 33.3 °F 27.1 °F 29.5 °F 86% 29.98 in 10.0 mi East 6.9 mph - N/A   Overcast
2:55 AM 33.3 °F 27.9 °F 29.3 °F 85% 29.97 in 10.0 mi East 5.8 mph - N/A   Overcast
3:15 AM 35.4 °F 27.3 °F 30.2 °F 81% 29.94 in 10.0 mi ESE 11.5 mph - N/A   Overcast
3:35 AM 35.8 °F 28.8 °F 30.2 °F 80% 29.92 in 10.0 mi SE 9.2 mph - N/A   Overcast
3:55 AM 35.8 °F 29.4 °F 30.6 °F 81% 29.91 in 5.0 mi SSE 8.1 mph - N/A Snow Light Snow
4:15 AM 33.6 °F 25.6 °F 32.0 °F 94% 29.89 in 2.5 mi SE 10.4 mph - N/A Snow Light Snow
4:35 AM 33.3 °F 25.1 °F 32.5 °F 97% 29.87 in 2.0 mi SE 10.4 mph - N/A Snow Light Snow
4:55 AM 33.3 °F 24.6 °F 33.1 °F 99% 29.86 in 3.0 mi SE 11.5 mph - N/A Snow Light Snow
5:15 AM 33.3 °F 25.7 °F 33.1 °F 99% 29.85 in 4.0 mi SE 9.2 mph - N/A Snow Light Snow
5:34 AM 33.3 °F 24.6 °F 32.9 °F 99% 29.83 in 3.0 mi SE 11.5 mph 17.3 mph N/A Snow Light Snow
5:55 AM 33.3 °F 25.7 °F 32.9 °F 99% 29.81 in 7.0 mi SE 9.2 mph - N/A Rain Light Rain
6:15 AM 34.5 °F 29.4 °F 33.8 °F 97% 29.81 in 7.0 mi SE 5.8 mph - N/A Snow Light Snow
6:34 AM 33.8 °F 26.4 °F 33.1 °F 97% 29.81 in 3.0 mi SSE 9.2 mph - N/A Snow Light Snow
6:55 AM 34.3 °F 27.7 °F 34.0 °F 99% 29.79 in 7.0 mi SE 8.1 mph - N/A Snow Light Snow
7:14 AM 34.7 °F 26.9 °F 34.0 °F 97% 29.77 in 7.0 mi SE 10.4 mph - N/A   Overcast
7:35 AM 35.8 °F 28.8 °F 35.1 °F 97% 29.77 in 10.0 mi SE 9.2 mph 17.3 mph N/A   Overcast
7:55 AM 35.8 °F 30.9 °F 34.9 °F 97% 29.76 in 10.0 mi SSE 5.8 mph - N/A   Overcast
8:15 AM 35.8 °F 30.1 °F 34.7 °F 96% 29.75 in 10.0 mi SE 6.9 mph - N/A   Overcast
8:35 AM 35.8 °F 30.9 °F 34.0 °F 93% 29.75 in 10.0 mi SSE 5.8 mph - N/A   Overcast
8:54 AM 36.3 °F 32.5 °F 33.8 °F 91% 29.74 in 10.0 mi South 4.6 mph - N/A   Overcast
9:15 AM 38.3 °F 34.8 °F 35.8 °F 91% 29.73 in 10.0 mi SSE 4.6 mph - N/A   Overcast
9:35 AM 38.3 °F 33.9 °F 35.1 °F 88% 29.72 in 10.0 mi South 5.8 mph - N/A   Overcast
9:54 AM 38.3 °F 34.8 °F 34.3 °F 86% 29.72 in 10.0 mi South 4.6 mph - N/A   Overcast
10:15 AM 39.6 °F 34.7 °F 35.1 °F 84% 29.71 in 10.0 mi South 6.9 mph 16.1 mph N/A   Overcast
10:35 AM 40.6 °F 34.8 °F 36.1 °F 84% 29.70 in 10.0 mi South 9.2 mph - N/A   Overcast
10:55 AM 41.2 °F 38.2 °F 36.5 °F 83% 29.69 in 10.0 mi South 4.6 mph - N/A   Overcast
11:15 AM 42.6 °F 39.9 °F 37.4 °F 82% 29.69 in 10.0 mi SSW 4.6 mph 17.3 mph N/A   Overcast
11:35 AM 44.1 °F 40.1 °F 38.3 °F 80% 29.69 in 10.0 mi SW 6.9 mph - N/A   Overcast
11:55 AM 45.9 °F 41.7 °F 40.3 °F 81% 29.68 in 10.0 mi SW 8.1 mph - N/A   Overcast
12:14 PM 45.9 °F 42.3 °F 40.3 °F 81% 29.68 in 10.0 mi SW 6.9 mph - N/A   Overcast
12:35 PM 45.9 °F 42.9 °F 40.5 °F 81% 29.67 in 10.0 mi SSW 5.8 mph - N/A   Overcast
12:55 PM 45.9 °F 42.3 °F 41.0 °F 83% 29.67 in 10.0 mi SSW 6.9 mph - N/A   Overcast
1:15 PM 45.9 °F 43.6 °F 41.2 °F 84% 29.67 in 10.0 mi SSW 4.6 mph - N/A   Overcast
1:35 PM 45.9 °F 42.9 °F 41.2 °F 84% 29.67 in 10.0 mi SW 5.8 mph - N/A   Overcast
1:54 PM 45.9 °F 40.8 °F 41.9 °F 86% 29.67 in 2.5 mi SW 10.4 mph - N/A Rain Light Rain
2:15 PM 43.7 °F 41.1 °F 42.4 °F 95% 29.67 in 1.2 mi SW 4.6 mph - N/A Rain Light Rain
2:35 PM 43.3 °F 38.6 °F 42.8 °F 98% 29.67 in 1.5 mi SW 8.1 mph - N/A Rain Light Rain
2:55 PM 43.2 °F 37.9 °F 42.8 °F 99% 29.67 in 1.0 mi SW 9.2 mph - N/A Rain Light Rain
3:15 PM 43.2 °F 38.4 °F 42.8 °F 99% 29.67 in 1.5 mi SW 8.1 mph - N/A Rain Light Rain
3:34 PM 43.2 °F 40.5 °F 42.8 °F 99% 29.68 in 4.0 mi WSW 4.6 mph - N/A   Heavy Drizzle
3:55 PM 42.8 °F 36.2 °F 42.1 °F 97% 29.69 in 4.0 mi WSW 12.7 mph 21.9 mph N/A   Light Drizzle
4:15 PM 41.9 °F 35.9 °F 41.0 °F 97% 29.69 in 4.0 mi WSW 10.4 mph 20.7 mph N/A   Overcast
4:35 PM 41.9 °F 35.0 °F 41.0 °F 97% 29.70 in 2.0 mi WSW 12.7 mph - N/A Rain Light Rain
4:55 PM 41.5 °F 36.4 °F 40.6 °F 97% 29.70 in 5.0 mi WSW 8.1 mph 17.3 mph N/A Rain Light Rain
5:15 PM 41.5 °F 37.1 °F 41.0 °F 98% 29.71 in 5.0 mi WSW 6.9 mph - N/A Rain Light Rain
5:35 PM 41.5 °F 35.4 °F 40.6 °F 97% 29.72 in 7.0 mi West 10.4 mph 18.4 mph N/A Rain Light Rain
5:55 PM 41.4 °F 34.3 °F 40.1 °F 95% 29.72 in 7.0 mi West 12.7 mph 19.6 mph N/A Rain Light Rain
6:14 PM 41.0 °F 34.7 °F 39.7 °F 95% 29.73 in 7.0 mi West 10.4 mph 18.4 mph N/A Rain Rain
6:35 PM 41.0 °F 34.3 °F 39.4 °F 94% 29.74 in 10.0 mi WSW 11.5 mph 20.7 mph N/A Rain Light Rain
6:54 PM 39.7 °F 32.3 °F 38.7 °F 96% 29.75 in 3.0 mi WSW 12.7 mph 20.7 mph N/A   Unknown
7:15 PM 39.7 °F 31.5 °F 38.7 °F 96% 29.75 in 7.0 mi West 15.0 mph 20.7 mph N/A Rain Light Rain
7:35 PM 39.6 °F 31.7 °F 37.8 °F 93% 29.76 in 10.0 mi West 13.8 mph 23.0 mph N/A   Overcast
7:55 PM 39.7 °F 31.5 °F 37.6 °F 92% 29.76 in 10.0 mi West 15.0 mph 21.9 mph N/A   Overcast
8:15 PM 39.6 °F 33.0 °F 36.7 °F 89% 29.77 in 10.0 mi West 10.4 mph 16.1 mph N/A   Overcast
8:35 PM 39.2 °F 30.2 °F 36.3 °F 89% 29.78 in 10.0 mi West 17.3 mph 25.3 mph N/A   Overcast
8:55 PM 39.4 °F 31.4 °F 34.7 °F 83% 29.78 in 10.0 mi West 13.8 mph 23.0 mph N/A   Overcast
9:15 PM 39.2 °F 31.6 °F 34.3 °F 83% 29.78 in 10.0 mi West 12.7 mph 20.7 mph N/A   Overcast
9:35 PM 39.2 °F 32.5 °F 33.3 °F 79% 29.78 in 10.0 mi West 10.4 mph 19.6 mph N/A   Overcast
9:55 PM 39.2 °F 31.6 °F 32.9 °F 78% 29.79 in 10.0 mi West 12.7 mph 21.9 mph N/A   Overcast
10:15 PM 39.2 °F 31.6 °F 32.2 °F 76% 29.79 in 10.0 mi West 12.7 mph 19.6 mph N/A   Overcast
10:35 PM 38.7 °F 31.4 °F 32.4 °F 78% 29.79 in 10.0 mi West 11.5 mph 20.7 mph N/A   Overcast
10:55 PM 38.5 °F 31.1 °F 32.0 °F 78% 29.79 in 10.0 mi West 11.5 mph 17.3 mph N/A   Overcast
11:15 PM 38.3 °F 30.9 °F 32.0 °F 78% 29.79 in 10.0 mi West 11.5 mph 18.4 mph N/A   Overcast
11:35 PM 38.3 °F 30.9 °F 31.8 °F 77% 29.79 in 10.0 mi West 11.5 mph 19.6 mph N/A   Overcast
11:55 PM 38.5 °F 30.3 °F 31.8 °F 77% 29.79 in 10.0 mi West 13.8 mph 19.6 mph N/A   Overcast